Regional Weather Roundup
Issued by NWS

Home | Current Version | Previous Version | Graphics & Text | Print | Product List | Glossary On
Versions: 1 2 3 4 5 6 7 8 9 10 11 12 13 14 15 16 17 18 19 20 21 22 23 24 25 26 27 28 29 30 31 32 33 34 35 36 37 38 39 40 41 42 43 44 45 46 47 48 49 50
000
ASUS45 KBOI 212210
RWRID
WEATHER ROUNDUP FOR IDAHO
NATIONAL WEATHER SERVICE BOISE ID
400 PM MDT MON JUL 21 2014

NOTE: "FAIR" INDICATES FEW OR NO CLOUDS BELOW 12000 FEET
WITH NO SIGNIFICANT WEATHER AND/OR OBSTRUCTIONS TO VISIBILITY

IDZ012-014-212300-
SOUTHWEST IDAHO


CITY           SKY/WX    TMP DP  RH WIND       PRES   REMARKS
BOISE          CLOUDY    82  51  34 CALM      30.01F
CALDWELL       CLOUDY    82  52  34 S13G18    30.02R
MOUNTAIN HOME  LGT RAIN  74  56  54 VRB2      30.03S
$$

IDZ016-017-212300-
SOUTHCENTRAL IDAHO


CITY           SKY/WX    TMP DP  RH WIND       PRES   REMARKS
BURLEY           N/A     81  52  36 W8        30.03F
JEROME         MOSUNNY   82  51  34 W12       30.06F
TWIN FALLS     MOSUNNY   81  55  40 NW10      30.06F
$$

IDZ019>023-212300-
SOUTHEAST IDAHO


CITY           SKY/WX    TMP DP  RH WIND       PRES   REMARKS
IDAHO FALLS    MOSUNNY   89  49  25 S21G29    30.05F
POCATELLO      PTSUNNY   85  50  29 VRB6      30.06F
REXBURG        MOSUNNY   85  49  28 SW16G26   30.05F
$$

IDZ006-010-011-018-031-032-212300-
CENTRAL IDAHO MOUNTAINS


CITY           SKY/WX    TMP DP  RH WIND       PRES   REMARKS
MCCALL         PTSUNNY   75  40  28 S14       30.10F
HAILEY         PTSUNNY   77  46  33 S8        30.14F
STANLEY          N/A     62  48  60 S15G23    30.24R
SALMON         CLOUDY    79  46  31 S15       29.96F
CHALLIS        CLOUDY    74  43  32 S15       30.10F
$$

IDZ002-004-006-007-026-212300-
NORTHERN IDAHO


CITY           SKY/WX    TMP DP  RH WIND       PRES   REMARKS
LEWISTON       PTSUNNY   83  39  21 W8        29.95F
LOWELL           N/A     89  47  23 CALM      29.92F
COEUR D`ALENE  MOSUNNY   73  45  35 MISG      30.01S
MULLAN PASS    MOSUNNY   60  36  40 SW8       30.15R
$$


USA.gov is the U.S. government's official web portal to all federal, state and local government web resources and services.